STARLINK-31823, 59794

Orbit data source: Space-Track

STARLINK-31823, 59794 is a payload satellite owned by SpaceX/Seattle (US) in LEO that was launched on Sat, 18 May 2024 UTC via an FALCON 9 launch vehicle from the Air Force Eastern Test Range (AFETR). Payloads include a variety of satellites, spacecraft, and rockets equipped with specific instruments for various scientific and technological missions. These include communications satellites like Starlink; space stations such as the ISS; scientific satellites like the Hubble; Earth observation satellites from companies like Planet Labs, Umbra, and HawkEye 360; GPS; miniature CubeSats for education and research; and military/defense satellites.

Loading next visibility...
STARLINK-31823 details
Identifier
59794, 2024-093N
Orbit
LEO
Last TLE update21 hours ago
Origin
Flag of USSpaceX/Seattle (US)
ManufacturerSpaceX/Seattle
MissionOperational spacecraft
Bus & MotorSTARLINK V2M, Unknown motor
Mass730 kg wet, ~700 kg dry
Launch date (UTC)
2024-05-18 (8 months ago)
Launch vehicle
FALCON 9
Launch site
Air Force Eastern Test Range (AFETR)
Object type
Payload
Rocket body
Debris
Shape & HBRUnknown
Radar Cross SectionLarge (>1 m²)

Expand to show TLE details & history

TLE from 21 hours ago
0 STARLINK-31823
1 59794U 24093N   25014.40858223  .00000819  00000-0  26871-4 0  9992
2 59794  42.9996  61.8076 0001465 260.1201  99.9490 15.40702345 38519
Epoch: 2025-01-14T09:48Z
Definitive object data (Epoch: 2025-01-14T09:48:21.504Z)
Latitude-0.00004°
Longitude160.60226°
Altitude443.982 km
Speed7.647 km/s
True Right ascension04h 07m 13s
True Declination0° 00' 00"
Sunlit
Object was in full shadow at TLE epoch
Visualization TLE readout
Latitude-43.13777°
Longitude67.6432°
Altitude456.365 km
Speed7.64 km/s
Apparent Right ascension20h 54m 14s
Apparent Declination-42° 26' 44"
Sunlit
Object is in daylight
Visualization observer readout
Local Sidereal Time07:51:51
Azimuth252.759° W
Elevation-78.012°
Doppler factor1
Orbital elements
Apogee altitude446.991 km
Perigee altitude444.992 km
Semi-major axis6,824.129 km
Eccentricity0.0001465
Inclination42.9996°
RAAN61.8076°
Arg. of periapsis260.1201°
True anomaly99.96553°
Mean anomaly99.949°
Eccentric anomaly99.95727°
Mean motion3.8501 °/min
BSTAR0.000026871
Orbital period93.5 mins
Loading maneuver chart data...
Loading historical data...
Loading historical data...
Loading historical data...
Loading historical data...
Loading historical data...
Loading historical data...
Loading historical data...

STARLINK-31823 Visibility forecast

Observer location: undefined°, undefined

Span
Click to sort rows by Start time (UTC) header in descending order
Start Az.
Max El. time (UTC)
Max El. Az.
Max El.
End time (UTC)
End Az.
6 mins2025-01-15 07:52:21.386Z266.435° W2025-01-15 07:55:21.386Z16.923° NNE41.428°2025-01-15 07:58:21.386Z69.868° E
5 mins2025-01-15 09:31:21.386Z295.843° NW2025-01-15 09:33:21.386Z1.143° NNE37.989°2025-01-15 09:36:21.386Z80.765° E
5 mins2025-01-15 11:09:21.386Z281.951° WNW2025-01-15 11:11:21.386Z231.783° WSW42.293°2025-01-15 11:14:21.386Z120.978° SE
4 mins2025-01-16 05:35:21.386Z189.837° SSW2025-01-16 05:36:21.386Z163.931° S25.139°2025-01-16 05:39:21.386Z91.967° ESE
|